Location: Wavehorne
(51.0500°N, 0.8333°E)
Time: 15:52:34
(UTC+00:00)

Cosmos 2058 - Pass Details

Date: 20 June 2021
Orbit: 563 x 582 km, 82.5° (Epoch: 04 August)

Event Time Altitude Azimuth Distance (km) Brightness Sun altitude
Exits shadow 00:24:26 16° 137° (SE) 1,510 4.7 -15.3°
Maximum altitude 00:26:50 27° 89° (E) 1,100 4.4 -15.2°
Drops below altitude 10° 00:30:19 10° 31° (NNE) 1,870 6.6 -15.2°
Sets 00:32:44 0° 20° (NNE) 2,774 8.1 -15.1°
